Flag for Germany Weather past 2 weeks in Dresden, Saxony, Germany

Now
84 °F

Sunny.


Feels Like: 82 °F
Forecast: 65 / 74 °F
Wind: 8 mph from North

Location: Dresden-Klotzsche

Current Time: Jul 7, 2015 at 2:01:58 PM

Latest Report: Jul 7, 2015 at 1:20 PM


Visibility: 10 mi

Pressure: 29.92 "Hg

Humidity: 31%

Dew point: 50 °F

Location of DresdenLocation

Historic Weather in Dresden — Graph

°F

Dresden temperature yesterday

Maximum temperature yesterday: 77 °F (at 12:20 AM)
Minimum temperature yesterday: 64 °F (at 8:20 AM)
Average temperature yesterday: 70 °F

Past Weeks' High & Low Weather Summary

 TemperatureHumidityPressure
High97 °F (Jul 5, 3:20 PM)100% (Jun 23, 3:20 AM)30.30 "Hg (Jun 23, 3:20 AM)
Low48 °F (Jun 24, 1:50 AM)25% (Jul 4, 4:50 PM)29.65 "Hg (Jun 23, 12:50 AM)
Average68 °F62%30.10 "Hg
* Reported Jun 22 12:20 PM — Jul 7 12:50 PM, Dresden, Weather by CustomWeather, © 2015

Note: Actual official high and low records may vary slightly from our data, if they occured in-between our weather recording intervals... More about our weather records

Advertising

Dresden weather history for previous 24 hours

 ConditionsComfort  
Time TempWeatherWind HumidityBarometerVisibility
12:50 PM
Tue, Jul 7
84 °FPassing clouds.9 mph31%29.95 "HgN/A
12:20 PM84 °FPassing clouds.8 mph29%29.95 "HgN/A
11:50 AM82 °FSunny.5 mph28%29.98 "Hg10 mi
11:20 AM81 °FSunny.3 mph34%29.98 "Hg10 mi
10:50 AM81 °FPassing clouds.3 mph32%29.98 "HgN/A
10:20 AM79 °FSunny.3 mph39%30.01 "Hg10 mi
9:50 AM77 °FSunny.5 mph47%30.01 "Hg10 mi
9:20 AM73 °FSunny.3 mph53%30.01 "Hg10 mi
8:50 AM72 °FPassing clouds.3 mph61%30.04 "HgN/A
8:20 AM68 °FPassing clouds.5 mph69%30.04 "HgN/A
7:50 AM64 °FPassing clouds.5 mph78%30.04 "HgN/A
7:20 AM63 °FPassing clouds.5 mph77%30.04 "HgN/A
6:50 AM61 °FSunny.3 mph83%30.04 "Hg10 mi
6:20 AM59 °FSunny.2 mph88%30.04 "Hg10 mi
5:50 AM59 °FClear.3 mph88%30.04 "Hg10 mi
5:20 AM57 °FClear.1 mph94%30.07 "Hg10 mi
4:50 AM57 °FClear.1 mph94%30.07 "Hg10 mi
4:20 AM57 °FClear.2 mph94%30.07 "Hg10 mi
3:50 AM59 °FClear.1 mph82%30.07 "Hg10 mi
3:20 AM59 °FClear.2 mph88%30.07 "Hg10 mi
2:50 AM59 °FClear.5 mph88%30.09 "Hg10 mi
2:20 AM61 °FPassing clouds.3 mph83%30.09 "HgN/A
1:50 AM61 °FClear.2 mph83%30.09 "Hg10 mi
1:20 AM61 °FClear.5 mph83%30.09 "Hg10 mi
12:50 AM63 °FClear.1 mph73%30.09 "Hg10 mi
12:20 AM66 °FClear.2 mph64%30.09 "Hg10 mi
11:50 PM
Mon, Jul 6
66 °FClear.3 mph64%30.09 "Hg10 mi
11:20 PM66 °FClear.1 mph60%30.09 "Hg10 mi
10:50 PM70 °FClear.1 mph53%30.09 "Hg10 mi
10:20 PM70 °FSunny.2 mph53%30.09 "Hg10 mi
9:50 PM70 °FSunny.No wind53%30.09 "Hg10 mi
9:20 PM72 °FSunny.1 mph50%30.09 "Hg10 mi
8:50 PM73 °FSunny.2 mph47%30.09 "Hg10 mi
8:20 PM73 °FSunny.2 mph47%30.09 "Hg10 mi
7:50 PM75 °FPassing clouds.5 mph44%30.09 "HgN/A
7:20 PM75 °FPassing clouds.7 mph41%30.09 "HgN/A
6:50 PM75 °FPassing clouds.9 mph41%30.09 "HgN/A
6:20 PM75 °FPassing clouds.8 mph44%30.12 "HgN/A
5:50 PM75 °FPassing clouds.8 mph44%30.12 "HgN/A
5:20 PM77 °FPassing clouds.10 mph42%30.12 "HgN/A
4:50 PM75 °FPassing clouds.10 mph44%30.12 "HgN/A
4:20 PM75 °FPassing clouds.10 mph44%30.15 "HgN/A
3:50 PM73 °FPassing clouds.10 mph50%30.15 "HgN/A
3:20 PM75 °FScattered clouds.13 mph47%30.15 "HgN/A
2:50 PM73 °FScattered clouds.12 mph53%30.12 "HgN/A
2:20 PM73 °FScattered clouds.10 mph53%30.15 "HgN/A
Weather by CustomWeather, © 2015

See weather overviewHow to use our weather pages